Location: Warner Observatory
(35.1353°N, 89.5455°W)
Time: 00:33:11
(UTC-06:00)

Envisat - Pass Details

Date: 28 January 2020
Orbit: 764 x 766 km, 98.1° (Epoch: 27 February)

Event Time Altitude Azimuth Distance (km) Brightness Sun altitude
Rises 17:53:58 0° 168° (SSE) 3,217 6.3 -6.9°
Reaches altitude 10° 17:56:16 10° 169° (S) 2,294 5.6 -7.4°
Maximum altitude 18:01:20 84° 257° (WSW) 775 3.1 -8.4°
Drops below altitude 10° 18:06:26 10° 346° (NNW) 2,308 5.5 -9.4°
Sets 18:08:45 0° 347° (NNW) 3,238 6.2 -9.8°
